Location: Frankfurt+(oder)
(51.7984°N, 12.2168°E)
Time: 03:10:38
(UTC+01:00)

ISS - Pass Details

Date: 17 November 2017
Orbit: 402 x 407 km, 51.6° (Epoch: 22 November)

Event Time Altitude Azimuth Distance (km) Brightness Sun altitude
Exits shadow 04:48:20 11° 153° (SSE) 1,414 -0.8 -25.2°
Drops below altitude 10° 04:48:27 10° 152° (SSE) 1,456 -0.7 -25.2°
Sets 04:50:42 0° 140° (SE) 2,307 0.6 -24.9°
